| time (UTC) | temp F | wind direction | speed MPH | gust MPH | rain 1hr in | rain 24hr in | rain mn in | humidity % | barometer mb |
| 20260507050721 | 56 | 111 | 0.0 | 6.0 | 0.03 | 0.21 | 0.03 | 92 | 1010.4 |
| 20260507050222 | 56 | 74 | 0.0 | 5.0 | 0.02 | 0.20 | 0.02 | 91 | 1010.4 |
| 20260507045721 | 56 | 29 | 0.0 | 6.0 | 0.02 | 0.20 | 0.02 | 90 | 1010.5 |
| 20260507045223 | 57 | 92 | 0.0 | 10.0 | 0.02 | 0.20 | 0.02 | 88 | 1010.5 |
| 20260507044723 | 58 | 57 | 0.0 | 9.0 | 0.02 | 0.20 | 0.02 | 86 | 1010.1 |
| 20260507044221 | 58 | 45 | 3.0 | 4.0 | 0.02 | 0.20 | 0.02 | 83 | 1010.1 |
| 20260507043721 | 58 | 153 | 2.0 | 6.0 | 0.00 | 0.18 | 0.00 | 82 | 1009.7 |
| 20260507043224 | 58 | 104 | 0.0 | 6.0 | 0.00 | 0.18 | 0.00 | 82 | 1010.0 |
| 20260507042722 | 59 | 97 | 5.0 | 11.0 | 0.00 | 0.18 | 0.00 | 81 | 1009.7 |
| 20260507042221 | 59 | 43 | 0.0 | 11.0 | 0.00 | 0.18 | 0.00 | 80 | 1009.9 |
| 20260507041721 | 59 | 85 | 7.0 | 10.0 | 0.00 | 0.18 | 0.00 | 79 | 1009.8 |
| 20260507041221 | 59 | 97 | 6.0 | 14.0 | 0.00 | 0.18 | 0.00 | 77 | 1009.9 |
| 20260507040721 | 59 | 118 | 6.0 | 10.0 | 0.00 | 0.18 | 0.00 | 79 | 1009.7 |
| 20260507040221 | 60 | 94 | 5.0 | 8.0 | 0.00 | 0.18 | 0.00 | 81 | 1009.4 |
| 20260507035721 | 60 | 104 | 0.0 | 3.0 | 0.00 | 0.18 | 0.00 | 81 | 1009.4 |
| 20260507035221 | 61 | 50 | 0.0 | 4.0 | 0.00 | 0.18 | 0.00 | 80 | 1009.4 |
| 20260507034221 | 61 | 85 | 6.0 | 8.0 | 0.00 | 0.18 | 0.18 | 80 | 1009.4 |
| 20260507033722 | 61 | 102 | 4.0 | 7.0 | 0.00 | 0.18 | 0.18 | 80 | 1009.7 |
| 20260507033221 | 61 | 80 | 3.0 | 8.0 | 0.00 | 0.18 | 0.18 | 79 | 1009.6 |
| 20260507032721 | 61 | 15 | 6.0 | 10.0 | 0.00 | 0.18 | 0.18 | 79 | 1009.6 |
| 20260507032221 | 62 | 354 | 0.0 | 9.0 | 0.00 | 0.18 | 0.18 | 82 | 1009.3 |
| 20260507031722 | 62 | 81 | 0.0 | 7.0 | 0.00 | 0.18 | 0.18 | 83 | 1009.3 |
| 20260507031221 | 62 | 80 | 1.0 | 7.0 | 0.00 | 0.18 | 0.18 | 83 | 1009.2 |
| 20260507030721 | 62 | 71 | 4.0 | 7.0 | 0.00 | 0.18 | 0.18 | 82 | 1009.0 |
| 20260507030221 | 62 | 54 | 0.0 | 6.0 | 0.00 | 0.18 | 0.18 | 82 | 1009.0 |
| 20260507025721 | 63 | 2 | 0.0 | 8.0 | 0.00 | 0.18 | 0.18 | 82 | 1009.1 |
| 20260507025221 | 63 | 71 | 5.0 | 10.0 | 0.00 | 0.18 | 0.18 | 82 | 1009.1 |
| 20260507024722 | 63 | 132 | 5.0 | 10.0 | 0.00 | 0.18 | 0.18 | 82 | 1009.0 |
| 20260507024223 | 63 | 46 | 4.0 | 9.0 | 0.00 | 0.18 | 0.18 | 82 | 1008.9 |
| 20260507023722 | 64 | 99 | 2.0 | 7.0 | 0.00 | 0.18 | 0.18 | 83 | 1008.9 |
| 20260507023221 | 64 | 78 | 2.0 | 4.0 | 0.00 | 0.18 | 0.18 | 84 | 1008.7 |
| 20260507022723 | 64 | 92 | 2.0 | 6.0 | 0.00 | 0.18 | 0.18 | 84 | 1008.9 |
| 20260507022223 | 64 | 102 | 4.0 | 5.0 | 0.00 | 0.18 | 0.18 | 84 | 1008.9 |
| 20260507021721 | 65 | 94 | 4.0 | 4.0 | 0.00 | 0.18 | 0.18 | 85 | 1009.0 |
| 20260507021223 | 65 | 82 | 0.0 | 4.0 | 0.00 | 0.18 | 0.18 | 86 | 1009.0 |
| 20260507020721 | 65 | 113 | 3.0 | 4.0 | 0.00 | 0.18 | 0.18 | 86 | 1008.5 |
| 20260507020222 | 65 | 15 | 0.0 | 3.0 | 0.00 | 0.18 | 0.18 | 85 | 1008.7 |
| 20260507015721 | 65 | 21 | 0.0 | 4.0 | 0.00 | 0.18 | 0.18 | 84 | 1008.7 |
| 20260507015222 | 65 | 32 | 0.0 | 4.0 | 0.00 | 0.18 | 0.18 | 84 | 1008.8 |
| 20260507014722 | 65 | 330 | 1.0 | 4.0 | 0.00 | 0.18 | 0.18 | 83 | 1009.1 |
| 20260507014221 | 65 | 9 | 1.0 | 6.0 | 0.00 | 0.18 | 0.18 | 83 | 1009.0 |
| 20260507013721 | 66 | 25 | 0.0 | 3.0 | 0.00 | 0.18 | 0.18 | 82 | 1009.1 |
| 20260507013221 | 66 | 25 | 2.0 | 3.0 | 0.00 | 0.18 | 0.18 | 82 | 1009.0 |
| 20260507012723 | 66 | 12 | 2.0 | 3.0 | 0.00 | 0.18 | 0.18 | 81 | 1008.9 |
| 20260507012221 | 66 | 344 | 0.0 | 6.0 | 0.00 | 0.18 | 0.18 | 81 | 1009.1 |
| 20260507011722 | 66 | 358 | 2.0 | 5.0 | 0.00 | 0.18 | 0.18 | 80 | 1009.1 |
| 20260507010724 | 67 | 312 | 0.0 | 0.0 | 0.00 | 0.18 | 0.18 | 80 | 1008.8 |
| 20260507010224 | 67 | 312 | 0.0 | 0.0 | 0.00 | 0.18 | 0.18 | 80 | 1008.7 |
| 20260507005727 | 67 | 312 | 0.0 | 0.0 | 0.00 | 0.18 | 0.18 | 79 | 1008.7 |
| 20260507005223 | 67 | 312 | 0.0 | 2.0 | 0.00 | 0.18 | 0.18 | 79 | 1008.6 |
| 20260507004722 | 67 | 319 | 0.0 | 2.0 | 0.00 | 0.18 | 0.18 | 79 | 1008.7 |
| 20260507004221 | 67 | 330 | 0.0 | 3.0 | 0.00 | 0.18 | 0.18 | 79 | 1008.5 |
| 20260507003721 | 67 | 305 | 0.0 | 0.0 | 0.00 | 0.18 | 0.18 | 79 | 1008.2 |
| 20260507003223 | 67 | 305 | 0.0 | 2.0 | 0.00 | 0.18 | 0.18 | 79 | 1008.3 |
| 20260507002721 | 67 | 327 | 0.0 | 2.0 | 0.00 | 0.18 | 0.18 | 79 | 1008.4 |
| 20260507002222 | 67 | 293 | 0.0 | 1.0 | 0.00 | 0.18 | 0.18 | 78 | 1008.1 |
| 20260507001723 | 68 | 295 | 1.0 | 2.0 | 0.00 | 0.18 | 0.18 | 78 | 1008.1 |
| 20260507001223 | 67 | 320 | 2.0 | 2.0 | 0.00 | 0.18 | 0.18 | 78 | 1008.2 |
| 20260507000721 | 68 | 282 | 0.0 | 0.0 | 0.00 | 0.18 | 0.18 | 78 | 1008.2 |
| 20260507000221 | 68 | 282 | 0.0 | 0.0 | 0.00 | 0.18 | 0.18 | 77 | 1008.2 |
| 20260506235721 | 68 | 282 | 0.0 | 0.0 | 0.00 | 0.18 | 0.18 | 77 | 1008.0 |
| 20260506235222 | 68 | 282 | 0.0 | 0.0 | 0.00 | 0.18 | 0.18 | 77 | 1007.7 |
| 20260506234722 | 68 | 282 | 0.0 | 0.0 | 0.00 | 0.18 | 0.18 | 76 | 1007.7 |
| 20260506234224 | 68 | 282 | 0.0 | 0.0 | 0.00 | 0.18 | 0.18 | 76 | 1007.9 |
| 20260506233721 | 68 | 282 | 0.0 | 0.0 | 0.00 | 0.18 | 0.18 | 76 | 1007.7 |
| 20260506233222 | 68 | 282 | 0.0 | 0.0 | 0.00 | 0.18 | 0.18 | 75 | 1007.6 |
| 20260506232721 | 68 | 282 | 0.0 | 0.0 | 0.00 | 0.18 | 0.18 | 75 | 1007.5 |
| 20260506232221 | 68 | 282 | 0.0 | 0.0 | 0.00 | 0.18 | 0.18 | 75 | 1007.5 |
| 20260506231721 | 68 | 282 | 0.0 | 1.0 | 0.00 | 0.18 | 0.18 | 75 | 1007.6 |
| 20260506231222 | 68 | 320 | 0.0 | 1.0 | 0.00 | 0.18 | 0.18 | 75 | 1007.6 |
| 20260506230721 | 68 | 309 | 0.0 | 0.0 | 0.00 | 0.18 | 0.18 | 75 | 1007.5 |
| 20260506230222 | 68 | 309 | 0.0 | 0.0 | 0.00 | 0.18 | 0.18 | 75 | 1007.5 |
| 20260506225721 | 68 | 309 | 0.0 | 0.0 | 0.00 | 0.18 | 0.18 | 75 | 1007.6 |
| 20260506225223 | 68 | 309 | 0.0 | 0.0 | 0.00 | 0.18 | 0.18 | 75 | 1007.6 |
| 20260506224222 | 69 | 309 | 0.0 | 0.0 | 0.00 | 0.18 | 0.18 | 75 | 1007.6 |
| 20260506223721 | 69 | 309 | 0.0 | 0.0 | 0.00 | 0.18 | 0.18 | 74 | 1007.6 |
| 20260506223221 | 69 | 309 | 0.0 | 0.0 | 0.00 | 0.18 | 0.18 | 75 | 1007.7 |
| 20260506222721 | 69 | 309 | 0.0 | 0.0 | 0.00 | 0.18 | 0.18 | 74 | 1007.6 |
| 20260506222221 | 69 | 309 | 0.0 | 0.0 | 0.00 | 0.18 | 0.18 | 74 | 1007.5 |
| 20260506221725 | 69 | 309 | 0.0 | 0.0 | 0.00 | 0.18 | 0.18 | 74 | 1007.5 |
| 20260506221223 | 69 | 309 | 0.0 | 0.0 | 0.00 | 0.18 | 0.18 | 74 | 1007.5 |
| 20260506220722 | 69 | 309 | 0.0 | 0.0 | 0.00 | 0.18 | 0.18 | 75 | 1007.4 |
| 20260506220222 | 69 | 309 | 0.0 | 1.0 | 0.00 | 0.18 | 0.18 | 74 | 1007.5 |
| 20260506215722 | 69 | 320 | 0.0 | 0.0 | 0.00 | 0.18 | 0.18 | 74 | 1007.6 |
| 20260506215222 | 68 | 320 | 0.0 | 1.0 | 0.00 | 0.18 | 0.18 | 74 | 1007.6 |
| 20260506214725 | 69 | 302 | 0.0 | 1.0 | 0.00 | 0.18 | 0.18 | 74 | 1007.4 |
| 20260506214226 | 68 | 310 | 1.0 | 1.0 | 0.00 | 0.18 | 0.18 | 74 | 1007.4 |
| 20260506213726 | 69 | 284 | 0.0 | 0.0 | 0.00 | 0.18 | 0.18 | 75 | 1007.4 |
| 20260506213232 | 69 | 284 | 0.0 | 2.0 | 0.00 | 0.18 | 0.18 | 74 | 1007.3 |
| 20260506212722 | 69 | 303 | 2.0 | 3.0 | 0.00 | 0.18 | 0.18 | 74 | 1007.3 |
| 20260506212226 | 69 | 295 | 0.0 | 0.0 | 0.00 | 0.18 | 0.18 | 75 | 1007.4 |
| 20260506211722 | 68 | 295 | 0.0 | 2.0 | 0.00 | 0.18 | 0.18 | 75 | 1007.2 |
| 20260506211222 | 68 | 299 | 0.0 | 0.0 | 0.00 | 0.18 | 0.18 | 75 | 1007.2 |
| 20260506210222 | 68 | 299 | 0.0 | 0.0 | 0.00 | 0.18 | 0.18 | 74 | 1007.1 |
| 20260506205722 | 68 | 299 | 0.0 | 0.0 | 0.00 | 0.18 | 0.18 | 74 | 1007.0 |
| 20260506205226 | 68 | 299 | 0.0 | 0.0 | 0.00 | 0.18 | 0.18 | 74 | 1007.1 |
| 20260506204722 | 69 | 299 | 0.0 | 0.0 | 0.00 | 0.18 | 0.18 | 74 | 1006.9 |
| 20260506204221 | 68 | 299 | 0.0 | 0.0 | 0.00 | 0.18 | 0.18 | 74 | 1007.2 |
| 20260506203722 | 69 | 299 | 0.0 | 0.0 | 0.00 | 0.18 | 0.18 | 74 | 1007.3 |
| 20260506203222 | 69 | 299 | 0.0 | 4.0 | 0.00 | 0.18 | 0.18 | 72 | 1007.1 |
| 20260506202722 | 69 | 313 | 2.0 | 6.0 | 0.00 | 0.18 | 0.18 | 72 | 1007.1 |
| 20260506202222 | 69 | 310 | 6.0 | 8.0 | 0.00 | 0.18 | 0.18 | 72 | 1007.1 |
| 20260506201722 | 69 | 327 | 3.0 | 4.0 | 0.00 | 0.18 | 0.18 | 73 | 1007.0 |
| 20260506201222 | 69 | 302 | 0.0 | 6.0 | 0.00 | 0.18 | 0.18 | 73 | 1007.0 |
| 20260506200722 | 69 | 299 | 3.0 | 5.0 | 0.00 | 0.18 | 0.18 | 74 | 1007.0 |
| 20260506200223 | 69 | 319 | 3.0 | 4.0 | 0.00 | 0.18 | 0.18 | 74 | 1007.1 |
| 20260506195722 | 69 | 322 | 2.0 | 3.0 | 0.00 | 0.18 | 0.18 | 74 | 1007.1 |
| 20260506195222 | 69 | 261 | 0.0 | 7.0 | 0.00 | 0.18 | 0.18 | 73 | 1007.1 |
| 20260506194723 | 68 | 320 | 5.0 | 6.0 | 0.00 | 0.18 | 0.18 | 72 | 1007.1 |
| 20260506194222 | 68 | 317 | 4.0 | 4.0 | 0.00 | 0.18 | 0.18 | 74 | 1007.1 |
| 20260506193722 | 68 | 295 | 1.0 | 9.0 | 0.00 | 0.18 | 0.18 | 74 | 1007.0 |
| 20260506193224 | 68 | 333 | 2.0 | 9.0 | 0.00 | 0.19 | 0.18 | 75 | 1007.2 |
| 20260506192722 | 68 | 295 | 4.0 | 7.0 | 0.00 | 0.19 | 0.18 | 75 | 1007.3 |
| 20260506192222 | 68 | 322 | 3.0 | 5.0 | 0.00 | 0.19 | 0.18 | 76 | 1007.2 |
| 20260506191723 | 68 | 306 | 4.0 | 9.0 | 0.00 | 0.19 | 0.18 | 75 | 1007.4 |
| 20260506191222 | 67 | 310 | 4.0 | 10.0 | 0.00 | 0.19 | 0.18 | 76 | 1007.4 |
| 20260506190722 | 67 | 289 | 1.0 | 6.0 | 0.00 | 0.19 | 0.18 | 78 | 1007.6 |
| 20260506190223 | 67 | 296 | 3.0 | 6.0 | 0.00 | 0.19 | 0.18 | 78 | 1007.6 |
| 20260506185722 | 67 | 313 | 1.0 | 7.0 | 0.00 | 0.19 | 0.18 | 79 | 1007.9 |
| 20260506185223 | 66 | 225 | 0.0 | 6.0 | 0.00 | 0.19 | 0.18 | 79 | 1007.9 |
| 20260506184724 | 66 | 329 | 1.0 | 6.0 | 0.00 | 0.19 | 0.18 | 80 | 1007.9 |
| 20260506184222 | 65 | 354 | 2.0 | 11.0 | 0.00 | 0.19 | 0.18 | 80 | 1007.7 |
| 20260506183726 | 65 | 258 | 3.0 | 10.0 | 0.00 | 0.19 | 0.18 | 81 | 1007.9 |
| 20260506183222 | 66 | 302 | 5.0 | 6.0 | 0.00 | 0.19 | 0.18 | 81 | 1007.9 |
| 20260506182722 | 65 | 317 | 2.0 | 7.0 | 0.00 | 0.19 | 0.18 | 81 | 1007.9 |
| 20260506182222 | 65 | 291 | 5.0 | 6.0 | 0.00 | 0.19 | 0.18 | 83 | 1007.7 |
| 20260506181722 | 65 | 289 | 2.0 | 10.0 | 0.00 | 0.19 | 0.18 | 83 | 1008.0 |
| 20260506181222 | 64 | 306 | 10.0 | 10.0 | 0.00 | 0.19 | 0.18 | 83 | 1008.0 |
| 20260506180722 | 64 | 275 | 4.0 | 8.0 | 0.00 | 0.19 | 0.18 | 84 | 1008.1 |
| 20260506180224 | 64 | 317 | 7.0 | 11.0 | 0.00 | 0.19 | 0.18 | 86 | 1008.2 |
| 20260506175722 | 63 | 322 | 3.0 | 10.0 | 0.00 | 0.19 | 0.18 | 87 | 1008.2 |
| 20260506175223 | 63 | 317 | 3.0 | 9.0 | 0.00 | 0.19 | 0.18 | 89 | 1008.1 |
| 20260506174724 | 64 | 306 | 3.0 | 6.0 | 0.00 | 0.19 | 0.18 | 90 | 1008.1 |
| 20260506174224 | 63 | 299 | 4.0 | 6.0 | 0.00 | 0.19 | 0.18 | 92 | 1008.2 |
| 20260506173722 | 62 | 292 | 4.0 | 10.0 | 0.00 | 0.19 | 0.18 | 92 | 1008.2 |
| 20260506173222 | 62 | 289 | 4.0 | 6.0 | 0.00 | 0.19 | 0.18 | 93 | 1008.2 |
| 20260506172722 | 62 | 278 | 4.0 | 7.0 | 0.00 | 0.19 | 0.18 | 95 | 1008.2 |
| 20260506172222 | 62 | 317 | 3.0 | 6.0 | 0.00 | 0.19 | 0.18 | 95 | 1008.3 |
| 20260506171723 | 62 | 282 | 0.0 | 6.0 | 0.00 | 0.19 | 0.18 | 95 | 1008.2 |
| 20260506171222 | 62 | 317 | 3.0 | 6.0 | 0.00 | 0.19 | 0.18 | 95 | 1008.2 |
| 20260506165722 | 61 | 295 | 2.0 | 4.0 | 0.00 | 0.19 | 0.18 | 96 | 1008.4 |
| 20260506165222 | 61 | 343 | 4.0 | 9.0 | 0.00 | 0.19 | 0.18 | 96 | 1008.4 |
| 20260506164724 | 61 | 8 | 2.0 | 7.0 | 0.00 | 0.19 | 0.18 | 96 | 1008.6 |
| 20260506164224 | 61 | 288 | 2.0 | 5.0 | 0.00 | 0.19 | 0.18 | 96 | 1008.5 |
| 20260506163722 | 61 | 305 | 2.0 | 7.0 | 0.00 | 0.19 | 0.18 | 96 | 1008.4 |
| 20260506163231 | 60 | 320 | 5.0 | 7.0 | 0.01 | 0.20 | 0.18 | 96 | 1008.4 |
| 20260506162722 | 61 | 268 | 3.0 | 13.0 | 0.01 | 0.20 | 0.18 | 96 | 1008.5 |
| 20260506162222 | 61 | 305 | 6.0 | 7.0 | 0.01 | 0.20 | 0.18 | 96 | 1008.7 |
| 20260506161722 | 61 | 317 | 5.0 | 11.0 | 0.01 | 0.20 | 0.18 | 97 | 1008.6 |
| 20260506161222 | 61 | 303 | 5.0 | 6.0 | 0.01 | 0.20 | 0.18 | 96 | 1008.6 |
| 20260506160723 | 61 | 307 | 6.0 | 7.0 | 0.03 | 0.20 | 0.18 | 96 | 1008.7 |
| 20260506160223 | 61 | 291 | 2.0 | 5.0 | 0.03 | 0.20 | 0.18 | 96 | 1008.7 |
| 20260506155722 | 61 | 275 | 3.0 | 5.0 | 0.04 | 0.20 | 0.18 | 96 | 1008.6 |
| 20260506155224 | 61 | 288 | 1.0 | 9.0 | 0.05 | 0.20 | 0.18 | 96 | 1008.8 |
| 20260506154723 | 61 | 303 | 2.0 | 3.0 | 0.05 | 0.20 | 0.18 | 96 | 1008.7 |
| 20260506154222 | 61 | 299 | 3.0 | 4.0 | 0.06 | 0.20 | 0.18 | 96 | 1008.5 |
| 20260506153722 | 61 | 240 | 1.0 | 4.0 | 0.06 | 0.20 | 0.18 | 96 | 1008.8 |
| 20260506153227 | 61 | 293 | 3.0 | 4.0 | 0.06 | 0.19 | 0.17 | 96 | 1008.8 |
| 20260506152722 | 61 | 281 | 2.0 | 5.0 | 0.06 | 0.19 | 0.17 | 96 | 1009.0 |
| 20260506152222 | 61 | 285 | 4.0 | 5.0 | 0.08 | 0.19 | 0.17 | 96 | 1009.2 |
| 20260506151722 | 61 | 267 | 2.0 | 4.0 | 0.08 | 0.19 | 0.17 | 95 | 1009.3 |
| 20260506151226 | 61 | 291 | 1.0 | 5.0 | 0.07 | 0.18 | 0.16 | 95 | 1009.4 |
| 20260506150722 | 61 | 57 | 1.0 | 6.0 | 0.07 | 0.17 | 0.15 | 95 | 1009.4 |
| 20260506150230 | 61 | 265 | 0.0 | 3.0 | 0.07 | 0.17 | 0.15 | 95 | 1009.4 |
| 20260506145722 | 61 | 299 | 2.0 | 5.0 | 0.07 | 0.16 | 0.14 | 95 | 1009.4 |
| 20260506145222 | 61 | 295 | 0.0 | 4.0 | 0.08 | 0.15 | 0.13 | 95 | 1009.5 |
| 20260506144725 | 61 | 310 | 3.0 | 6.0 | 0.08 | 0.15 | 0.13 | 95 | 1009.5 |
| 20260506144222 | 61 | 272 | 1.0 | 5.0 | 0.08 | 0.14 | 0.12 | 95 | 1009.4 |
| 20260506143722 | 61 | 296 | 0.0 | 5.0 | 0.09 | 0.14 | 0.12 | 95 | 1009.3 |
| 20260506143224 | 61 | 315 | 2.0 | 5.0 | 0.09 | 0.13 | 0.11 | 94 | 1009.1 |
| 20260506142722 | 61 | 270 | 1.0 | 4.0 | 0.09 | 0.13 | 0.11 | 94 | 1009.1 |
| 20260506142222 | 61 | 300 | 4.0 | 4.0 | 0.07 | 0.11 | 0.09 | 93 | 1009.2 |
| 20260506141722 | 62 | 279 | 1.0 | 3.0 | 0.07 | 0.11 | 0.09 | 93 | 1009.2 |
| 20260506141222 | 61 | 275 | 2.0 | 6.0 | 0.08 | 0.11 | 0.09 | 92 | 1009.3 |
| 20260506140722 | 62 | 282 | 0.0 | 5.0 | 0.07 | 0.10 | 0.08 | 91 | 1009.4 |
| 20260506140222 | 61 | 310 | 0.0 | 5.0 | 0.07 | 0.10 | 0.08 | 90 | 1009.5 |
| 20260506135722 | 62 | 255 | 2.0 | 6.0 | 0.06 | 0.09 | 0.07 | 89 | 1009.7 |
| 20260506135226 | 62 | 317 | 3.0 | 5.0 | 0.04 | 0.07 | 0.05 | 88 | 1009.8 |
| 20260506134725 | 62 | 281 | 2.0 | 6.0 | 0.04 | 0.07 | 0.05 | 87 | 1009.7 |
| 20260506134222 | 62 | 281 | 0.0 | 4.0 | 0.03 | 0.06 | 0.04 | 85 | 1009.6 |
| 20260506133722 | 63 | 300 | 3.0 | 5.0 | 0.02 | 0.05 | 0.03 | 85 | 1009.6 |
| 20260506132722 | 63 | 244 | 1.0 | 4.0 | 0.01 | 0.04 | 0.02 | 83 | 1009.6 |
| 20260506132222 | 63 | 270 | 0.0 | 4.0 | 0.01 | 0.04 | 0.02 | 82 | 1009.6 |
| 20260506131722 | 64 | 288 | 1.0 | 5.0 | 0.01 | 0.04 | 0.02 | 80 | 1009.6 |
| 20260506131222 | 64 | 296 | 2.0 | 5.0 | 0.00 | 0.03 | 0.01 | 79 | 1009.4 |
| 20260506130722 | 64 | 258 | 0.0 | 0.0 | 0.00 | 0.03 | 0.01 | 79 | 1009.2 |
| 20260506130223 | 64 | 258 | 0.0 | 0.0 | 0.00 | 0.03 | 0.01 | 77 | 1009.2 |
| 20260506125722 | 64 | 258 | 0.0 | 3.0 | 0.00 | 0.03 | 0.01 | 77 | 1009.2 |
| 20260506125222 | 64 | 277 | 2.0 | 4.0 | 0.00 | 0.03 | 0.01 | 76 | 1009.2 |
| 20260506124724 | 64 | 275 | 1.0 | 5.0 | 0.00 | 0.03 | 0.01 | 77 | 1009.2 |
| 20260506124224 | 64 | 323 | 2.0 | 5.0 | 0.00 | 0.03 | 0.01 | 77 | 1009.2 |
| 20260506123722 | 64 | 298 | 1.0 | 3.0 | 0.00 | 0.03 | 0.01 | 76 | 1009.4 |
| 20260506123223 | 64 | 267 | 0.0 | 3.0 | 0.00 | 0.03 | 0.01 | 75 | 1009.6 |
| 20260506122722 | 65 | 282 | 2.0 | 9.0 | 0.00 | 0.03 | 0.01 | 74 | 1009.6 |
| 20260506122222 | 65 | 274 | 1.0 | 3.0 | 0.00 | 0.03 | 0.01 | 74 | 1009.7 |
| 20260506121723 | 65 | 319 | 3.0 | 4.0 | 0.00 | 0.03 | 0.01 | 73 | 1009.7 |
| 20260506121222 | 65 | 310 | 2.0 | 4.0 | 0.00 | 0.03 | 0.01 | 72 | 1009.7 |
| 20260506120722 | 65 | 296 | 3.0 | 7.0 | 0.00 | 0.03 | 0.01 | 70 | 1009.7 |
| 20260506120225 | 65 | 254 | 2.0 | 5.0 | 0.00 | 0.03 | 0.01 | 70 | 1009.7 |
| 20260506115726 | 65 | 291 | 2.0 | 8.0 | 0.01 | 0.03 | 0.01 | 70 | 1009.7 |
| 20260506115222 | 65 | 285 | 1.0 | 7.0 | 0.01 | 0.03 | 0.01 | 70 | 1009.6 |
| 20260506114724 | 65 | 313 | 3.0 | 5.0 | 0.01 | 0.03 | 0.01 | 70 | 1009.4 |
| 20260506114222 | 65 | 279 | 3.0 | 6.0 | 0.01 | 0.03 | 0.01 | 71 | 1009.1 |
| 20260506113726 | 65 | 312 | 3.0 | 5.0 | 0.01 | 0.03 | 0.01 | 70 | 1009.3 |
| 20260506113223 | 65 | 310 | 2.0 | 5.0 | 0.01 | 0.03 | 0.01 | 71 | 1009.3 |
| 20260506112726 | 65 | 264 | 2.0 | 5.0 | 0.01 | 0.03 | 0.01 | 71 | 1009.2 |
| 20260506112223 | 65 | 293 | 4.0 | 5.0 | 0.01 | 0.03 | 0.01 | 71 | 1009.2 |
| 20260506111724 | 65 | 292 | 1.0 | 3.0 | 0.01 | 0.03 | 0.01 | 71 | 1009.0 |
| 20260506111223 | 65 | 337 | 2.0 | 5.0 | 0.01 | 0.03 | 0.01 | 71 | 1009.2 |
| 20260506110722 | 65 | 289 | 3.0 | 5.0 | 0.01 | 0.03 | 0.01 | 71 | 1009.0 |
| 20260506110222 | 65 | 275 | 1.0 | 3.0 | 0.01 | 0.03 | 0.01 | 71 | 1008.9 |
| 20260506105725 | 65 | 295 | 3.0 | 5.0 | 0.00 | 0.02 | 0.00 | 71 | 1008.9 |
| 20260506105223 | 65 | 309 | 2.0 | 5.0 | 0.00 | 0.02 | 0.00 | 71 | 1008.9 |
| 20260506104722 | 64 | 274 | 3.0 | 5.0 | 0.00 | 0.02 | 0.00 | 72 | 1008.8 |
| 20260506104224 | 64 | 272 | 2.0 | 3.0 | 0.00 | 0.02 | 0.00 | 72 | 1008.8 |
| 20260506103722 | 64 | 278 | 2.0 | 5.0 | 0.00 | 0.02 | 0.00 | 73 | 1008.8 |
| 20260506103222 | 64 | 272 | 2.0 | 6.0 | 0.00 | 0.02 | 0.00 | 73 | 1008.8 |
| 20260506102726 | 64 | 274 | 1.0 | 3.0 | 0.00 | 0.02 | 0.00 | 73 | 1008.8 |
| 20260506102222 | 64 | 258 | 0.0 | 2.0 | 0.00 | 0.02 | 0.00 | 72 | 1008.8 |
| 20260506101723 | 64 | 246 | 1.0 | 4.0 | 0.00 | 0.02 | 0.00 | 72 | 1008.8 |
| 20260506101223 | 64 | 275 | 0.0 | 4.0 | 0.00 | 0.02 | 0.00 | 72 | 1008.8 |
| 20260506100723 | 64 | 296 | 3.0 | 4.0 | 0.00 | 0.02 | 0.00 | 72 | 1008.8 |
| 20260506095723 | 65 | 286 | 1.0 | 3.0 | 0.00 | 0.02 | 0.00 | 71 | 1008.8 |
| 20260506095223 | 65 | 303 | 3.0 | 4.0 | 0.00 | 0.02 | 0.00 | 71 | 1008.8 |
| 20260506094723 | 64 | 293 | 2.0 | 4.0 | 0.00 | 0.02 | 0.00 | 71 | 1008.8 |
| 20260506094223 | 64 | 286 | 2.0 | 3.0 | 0.00 | 0.02 | 0.00 | 70 | 1008.7 |
| 20260506093723 | 65 | 281 | 2.0 | 3.0 | 0.00 | 0.02 | 0.00 | 70 | 1008.8 |
| 20260506093224 | 65 | 296 | 0.0 | 4.0 | 0.00 | 0.02 | 0.00 | 69 | 1008.8 |
| 20260506092723 | 66 | 302 | 2.0 | 5.0 | 0.00 | 0.02 | 0.00 | 69 | 1008.8 |
| 20260506092223 | 65 | 260 | 1.0 | 3.0 | 0.00 | 0.02 | 0.00 | 69 | 1008.8 |
| 20260506091724 | 65 | 309 | 1.0 | 4.0 | 0.00 | 0.02 | 0.00 | 68 | 1008.7 |
| 20260506091223 | 66 | 285 | 3.0 | 5.0 | 0.00 | 0.02 | 0.00 | 68 | 1008.8 |
| 20260506090723 | 66 | 268 | 3.0 | 5.0 | 0.00 | 0.02 | 0.00 | 67 | 1008.8 |
| 20260506090222 | 66 | 272 | 0.0 | 6.0 | 0.00 | 0.02 | 0.00 | 66 | 1009.0 |
| 20260506085723 | 66 | 292 | 4.0 | 6.0 | 0.00 | 0.02 | 0.00 | 66 | 1008.9 |
| 20260506085223 | 66 | 293 | 3.0 | 4.0 | 0.00 | 0.02 | 0.00 | 67 | 1008.9 |
| 20260506084724 | 66 | 289 | 3.0 | 3.0 | 0.00 | 0.02 | 0.00 | 66 | 1009.0 |
| 20260506084223 | 66 | 292 | 2.0 | 4.0 | 0.00 | 0.02 | 0.00 | 66 | 1009.0 |
| 20260506083723 | 66 | 284 | 0.0 | 3.0 | 0.00 | 0.02 | 0.00 | 66 | 1009.0 |
| 20260506083223 | 66 | 289 | 1.0 | 4.0 | 0.00 | 0.02 | 0.00 | 65 | 1009.0 |
| 20260506082722 | 67 | 292 | 3.0 | 5.0 | 0.00 | 0.02 | 0.00 | 65 | 1008.9 |
| 20260506082223 | 67 | 281 | 2.0 | 4.0 | 0.00 | 0.02 | 0.00 | 65 | 1008.9 |
| 20260506081725 | 67 | 226 | 0.0 | 4.0 | 0.00 | 0.02 | 0.00 | 64 | 1008.8 |
| 20260506081223 | 67 | 274 | 2.0 | 3.0 | 0.00 | 0.02 | 0.00 | 64 | 1008.7 |
| 20260506080723 | 67 | 278 | 0.0 | 3.0 | 0.00 | 0.02 | 0.00 | 63 | 1008.9 |
| 20260506080223 | 68 | 275 | 1.0 | 4.0 | 0.00 | 0.02 | 0.00 | 62 | 1008.9 |
| 20260506073223 | 69 | 295 | 2.0 | 5.0 | 0.00 | 0.02 | 0.00 | 57 | 1008.9 |
| 20260506072723 | 68 | 282 | 2.0 | 9.0 | 0.00 | 0.02 | 0.00 | 57 | 1009.1 |
| 20260506072223 | 69 | 310 | 3.0 | 6.0 | 0.00 | 0.02 | 0.00 | 57 | 1009.1 |
| 20260506071723 | 69 | 284 | 1.0 | 8.0 | 0.00 | 0.02 | 0.00 | 57 | 1009.1 |
| 20260506071222 | 69 | 305 | 4.0 | 5.0 | 0.00 | 0.02 | 0.00 | 57 | 1009.1 |
| 20260506070723 | 69 | 303 | 5.0 | 7.0 | 0.00 | 0.02 | 0.00 | 56 | 1009.1 |
| 20260506070223 | 69 | 326 | 4.0 | 8.0 | 0.00 | 0.02 | 0.00 | 55 | 1009.1 |
| 20260506062223 | 70 | 293 | 4.0 | 6.0 | 0.00 | 0.02 | 0.00 | 52 | 1009.4 |
| 20260506061723 | 70 | 298 | 4.0 | 7.0 | 0.00 | 0.02 | 0.00 | 52 | 1009.4 |
| 20260506061223 | 70 | 313 | 3.0 | 8.0 | 0.00 | 0.02 | 0.00 | 51 | 1009.4 |
| 20260506060723 | 70 | 293 | 2.0 | 8.0 | 0.00 | 0.02 | 0.00 | 51 | 1009.4 |
| 20260506060222 | 70 | 274 | 2.0 | 9.0 | 0.00 | 0.02 | 0.00 | 51 | 1009.5 |
| 20260506051223 | 70 | 281 | 5.0 | 6.0 | 0.00 | 0.02 | 0.00 | 49 | 1009.7 |